Voltar ao catálogo

STARLINK-31414

AtivoComunicaçõesVLEO
NORAD 59418·PAYLOAD·🇺🇸 United States

Lançado Apr 5, 2024 de Cape Canaveral Space Force Station

Loading…

Próximas Passagens (próximas 24 horas)

TLE

AtualizadoSource: CelesTrak SupGP

Época: Sep 15, 2026, 02:18 UTC

1 59418C 24064W   26258.09631944 -.00085156  00000+0 -30821-2 0  2582
2 59418  43.0012  66.5713 0001404 265.6566  44.8468 15.27645063    16

Acompanhe STARLINK-31414 em tempo real com AllMySat

Download on the App Store